User: anonymous
Location: Fiddletown
(38.4917°N, 120.6633°W)
Time: 09:28:58
(UTC-07:00)
Language:

Envisat - Orbit

View from above orbital plane
View from above orbital plane
View from above satellite
View from above satellite

Ground track
Ground track

The orbit data is extracted from the following two-line orbital elements,

1 27386U 02009A   14275.12023086  .00000107  00000-0  49791-4 0  5109
2 27386 098.3721 337.7874 0001168 104.2470 309.9671 14.37735401658943
Epoch (UTC): 02 October 2014 02:53:07
Eccentricity: 0.0001168
inclination: 98.3721°
perigee height: 765 km
apogee height: 767 km
right ascension of ascending node: 337.7874°
argument of perigee: 104.2470°
revolutions per day: 14.37735401
mean anomaly at epoch: 309.9671°
orbit number at epoch: 65894

The dashed part of the orbit path shows where the satellite is in the earth's shadow,  

DLR